Miscellaneous Local Product
Issued by NWS Hastings, NE

Home | Current Version | Previous Version | Text Only | Print | Product List | Glossary Off
Versions: 1 2 3 4 5 6 7 8 9 10 11 12 13 14 15 16 17 18 19 20 21 22 23 24 25 26 27 28 29 30 31 32 33 34 35 36 37 38 39 40 41 42 43 44 45 46 47 48 49 50

000
AXUS43 KGID 251702
MISGRI

GID CWA HOURLY WEATHER ROUNDUP
NATIONAL WEATHER SERVICE HASTINGS NE
1100 AM CST WED FEB 25 2015

NOTE: "FAIR" INDICATES FEW OR NO CLOUDS BELOW 12,000 FEET WITH NO
SIGNIFICANT WEATHER AND/OR OBSTRUCTIONS TO VISIBILITY.

...SOUTH CENTRAL NEBRASKA...

CITY           SKY/WX    TMP DP  RH WIND       PRES   REMARKS
GRAND ISLAND   CLOUDY    41  30  65 N24       29.77R
HASTINGS       CLOUDY    46  32  58 NW16      29.74R
KEARNEY        CLOUDY    43  27  52 N28G33    29.78R
ORD            CLOUDY    34  26  72 N25G36    29.81R WCI  21
YORK           LGT RAIN  39  36  87 NW16      29.74R WCI  30
AURORA         LGT RAIN  40  34  79 NW9       29.73R WCI  34
LEXINGTON      CLOUDY    45  32  60 N26G35    29.79R
HOLDREGE       CLOUDY    47  31  53 N20G26    29.76R
HEBRON         PTSUNNY   41  25  53 SW9       29.75R

...NEBRASKA PANHANDLE...

CITY           SKY/WX    TMP DP  RH WIND       PRES   REMARKS
CHADRON        LGT SNOW  33  30  88 N18G28    29.94R VSB 3/4 WCI  22
ALLIANCE       CLOUDY    35  32  88 N15       29.88R WCI  25
SCOTTSBLUFF    CLOUDY    40  31  70 NW21G28   29.92R WCI  30
SIDNEY         PTSUNNY   41  29  62 NW31G39   29.87S

...WESTERN AND NORTH CENTRAL NEBRASKA...

CITY           SKY/WX    TMP DP  RH WIND       PRES   REMARKS
VALENTINE      CLOUDY    27  24  89 N17G24    29.90R WCI  14
AINSWORTH      CLOUDY    27  24  88 N21G28    29.88R WCI  14
ONEILL         LGT SNOW  25  22  91 N21       29.86R WCI  10
BROKEN BOW     CLOUDY    39  31  72 N22G33    29.81R WCI  29
IMPERIAL         N/A     46  33  60 N25       29.84R
NORTH PLATTE   PTSUNNY   43  30  60 N22G31    29.83R
MCCOOK         CLOUDY    49  30  48 N28G35    29.81R

...EASTERN NEBRASKA...

CITY           SKY/WX    TMP DP  RH WIND       PRES   REMARKS
NORFOLK        LGT SNOW  26  23  88 N20       29.78R VSB 1   WCI  12
SO SIOUX CITY  FOG       22  18  85 NE13G23   29.81R VSB 1/2 WCI  10
TEKAMAH        LGT RAIN  38  33  82 W5        29.72R WCI  34
ALBION         LGT SNOW  32  28  86 N17G23    29.77R WCI  21
OMAHA EPPLEY   CLOUDY    42  27  55 S6        29.71S
OFFUTT AFB     CLOUDY    45  28  50 S9        29.70F
MILLARD        CLOUDY    45  28  52 W8        29.71S
LINCOLN        CLOUDY    44  27  51 W10       29.74S
NEBRASKA CITY  CLOUDY    46  20  35 SW17      29.72F
BEATRICE       CLOUDY    47  28  47 S17       29.72F
FALLS CITY     PTSUNNY   49  27  42 S14G21    29.76F

...NORTHERN KANSAS...

CITY           SKY/WX    TMP DP  RH WIND       PRES   REMARKS
GOODLAND       MOSUNNY   41  35  79 NW14      29.84R
HILL CITY      CLOUDY    48  32  53 N20G26    29.79R
NORTON         CLOUDY    48  28  46 N22       29.77S
PHILLIPSBURG   CLOUDY    48  30  49 NW12      29.78S
SMITH CENTER   DRIZZLE   39  27  60 W5        29.78R
BELOIT         SUNNY     46  27  46 NW9       29.77S
HAYS           MOSUNNY   45  23  42 NW10      29.77F
RUSSELL        MOSUNNY   47  28  47 SW12      29.76S
CONCORDIA      MOSUNNY   49  28  44 SW14      29.76S
SALINA         SUNNY     51  29  42 S14       29.79F
TOPEKA         SUNNY     49  26  41 SW10      29.81F



USA.gov is the U.S. government's official web portal to all federal, state and local government web resources and services.